Home   Weather   Fürstenfeldbruck   Past weeks

Flag for Germany Past Weather in Fürstenfeldbruck, Bavaria, Germany — Yesterday and Last 2 Weeks

Now
55 °F

Clear.


Feels Like: 55 °F
Forecast: 51 / 70 °F
Wind: 1 mph from South

Location: Oberpfaffenhofen

Current Time: Sep 30, 2016 at 10:33:59 PM

Latest Report: Sep 30, 2016 at 7:50 PM


Visibility: 10 mi

Pressure: 30.04 "Hg (28.23 "Hg at 520m altitude)

Humidity: 77%

Dew Point: 48 °F

Location of FürstenfeldbruckLocation

Past Weather in Fürstenfeldbruck — Graph

°F

Fürstenfeldbruck Temperature Yesterday

Maximum temperature yesterday: 73 °F (at 2:50 PM)
Minimum temperature yesterday: 48 °F (at 6:50 AM)
Average temperature yesterday: 65 °F

High & Low Weather Summary for the Past Weeks

 TemperatureHumidityPressure
High73 °F (Sep 29, 2:50 PM)100% (Sep 18, 10:50 AM)30.45 "Hg (Sep 18, 10:50 AM)
Low36 °F (Sep 22, 6:50 AM)33% (Sep 30, 3:20 PM)29.89 "Hg (Sep 18, 10:50 AM)
Average59 °F77%30.15 "Hg
* Reported Sep 15 7:20 PM — Sep 30 7:50 PM, Fürstenfeldbruck, Weather by CustomWeather, © 2016

Note: Actual official high and low records may vary slightly from our data, if they occured in-between our weather recording intervals... More about our weather records

Advertising

Fürstenfeldbruck Weather History for the Previous 24 Hours

Scroll right to see more
 ConditionsComfort  
Time TempWeatherWind HumidityBarometerVisibility
7:50 PM
Fri, Sep 30
55 °FClear.1 mph77%30.04 "Hg10 mi
7:20 PM55 °FClear.3 mph77%30.04 "Hg10 mi
6:50 PM64 °FSunny.6 mph52%30.01 "Hg10 mi
6:20 PM68 °FSunny.5 mph49%30.01 "Hg10 mi
5:50 PM70 °FSunny.8 mph43%30.01 "Hg10 mi
5:20 PM72 °FSunny.9 mph38%30.01 "Hg10 mi
4:50 PM72 °FSunny.8 mph41%30.01 "Hg10 mi
4:20 PM72 °FSunny.13 mph36%30.04 "Hg10 mi
3:50 PM73 °FSunny.12 mph33%30.04 "Hg10 mi
3:20 PM73 °FSunny.10 mph33%30.04 "Hg10 mi
2:50 PM73 °FSunny.10 mph36%30.04 "Hg10 mi
2:20 PM73 °FSunny.10 mph38%30.04 "Hg10 mi
1:50 PM72 °FSunny.12 mph41%30.07 "Hg10 mi
1:20 PM72 °FSunny.12 mph44%30.07 "Hg10 mi
12:50 PM72 °FPassing clouds.13 mph47%30.07 "HgN/A
12:20 PM70 °FSunny.14 mph50%30.07 "Hg10 mi
11:50 AM70 °FSunny.13 mph50%30.09 "Hg10 mi
11:20 AM68 °FSunny.12 mph53%30.09 "Hg10 mi
10:50 AM66 °FSunny.9 mph56%30.09 "Hg10 mi
10:20 AM64 °FSunny.10 mph60%30.09 "Hg10 mi
9:50 AM63 °FSunny.10 mph64%30.09 "Hg10 mi
9:20 AM61 °FSunny.12 mph68%30.09 "Hg10 mi
8:50 AM59 °FSunny.7 mph72%30.09 "Hg10 mi
8:20 AM54 °FSunny.2 mph82%30.07 "Hg10 mi
7:50 AM52 °FSunny.8 mph82%30.07 "Hg10 mi
7:20 AM52 °FSunny.9 mph82%30.07 "Hg10 mi
6:50 AM52 °FClear.8 mph77%30.07 "Hg10 mi
Weather by CustomWeather, © 2016

See weather overviewHow to use our weather pages